START_TIME,STEP,MOV.,AL01,t_acc.,AL02,t_acc.,E37,t_acc.,H21,t_acc.
1981-08-31 00:00:34.790 ,5,0,0.,24.0,0.,24.0,1.,24.0,0.,24.0
1981-08-31 00:00:58.790 ,4,1,0.,24.0,0.,24.0,1.,24.0,0.,24.0
1981-08-31 00:01:22.790 ,4,0,0.,24.0,0.,24.0,0.,24.0,0.,24.0
1981-08-31 00:01:46.790 ,3,1,0.,24.0,0.,24.0,1.,24.0,0.,24.0
1981-08-31 00:02:10.790 ,2,1,0.,24.0,0.,24.0,0.,24.0,0.,24.0
1981-08-31 00:02:34.790 ,1,1,0.,24.0,0.,24.0,0.,24.0,0.,24.0
1981-08-31 00:02:58.790 ,0,1,0.,24.0,0.,24.0,0.,24.0,0.,24.0
1981-08-31 00:03:22.790 ,0,1,1.,24.0,0.,24.0,1.,24.0,0.,24.0
1981-08-31 00:03:46.790 ,1,1,0.,24.0,0.,24.0,0.,24.0,0.,24.0
1981-08-31 00:04:10.790 ,2,1,0.,24.0,1.,24.0,0.,24.0,0.,24.0
1981-08-31 00:04:34.790 ,3,1,0.,24.0,0.,24.0,0.,24.0,0.,24.0
1981-08-31 00:04:58.790 ,4,1,0.,24.0,0.,24.0,0.,24.0,0.,24.0
1981-08-31 00:05:22.790 ,5,1,0.,24.0,0.,24.0,1.,24.0,0.,24.0
1981-08-31 00:05:46.790 ,6,1,0.,24.0,0.,24.0,0.,24.0,0.,24.0
1981-08-31 00:06:10.790 ,7,1,7.,24.0,0.,24.0,0.,24.0,0.,24.0
1981-08-31 00:06:34.790 ,7,1,30.,24.0,0.,24.0,0.,24.0,0.,24.0
1981-08-31 00:06:58.790 ,6,1,21.,24.0,0.,24.0,0.,24.0,0.,24.0
1981-08-31 00:07:22.790 ,5,1,1.,24.0,0.,24.0,1.,24.0,0.,24.0
1981-08-31 00:07:46.790 ,4,1,0.,24.0,0.,24.0,0.,24.0,0.,24.0
1981-08-31 00:08:10.790 ,3,1,0.,24.0,0.,24.0,1.,24.0,0.,24.0
1981-08-31 00:08:34.790 ,3,0,0.,24.0,0.,24.0,1.,24.0,0.,24.0
1981-08-31 00:08:58.790 ,2,1,1.,24.0,0.,24.0,1.,24.0,0.,24.0
1981-08-31 00:09:22.790 ,2,0,0.,24.0,0.,24.0,0.,24.0,0.,24.0
1981-08-31 00:09:46.790 ,1,1,0.,24.0,0.,24.0,0.,24.0,0.,24.0
1981-08-31 00:10:10.790 ,1,0,1.,24.0,0.,24.0,0.,24.0,0.,24.0
1981-08-31 00:10:34.790 ,0,1,0.,24.0,0.,24.0,0.,24.0,0.,24.0
1981-08-31 00:10:58.790 ,0,0,0.,24.0,0.,24.0,0.,24.0,0.,24.0
1981-08-31 00:11:22.790 ,0,1,0.,24.0,0.,24.0,0.,24.0,0.,24.0
1981-08-31 00:11:46.790 ,0,0,0.,24.0,0.,24.0,0.,24.0,0.,24.0
1981-08-31 00:12:10.790 ,1,1,0.,24.0,0.,24.0,0.,24.0,0.,24.0
1981-08-31 00:12:34.790 ,1,0,0.,24.0,0.,24.0,1.,24.0,0.,24.0
1981-08-31 00:12:58.790 ,2,1,0.,24.0,0.,24.0,0.,24.0,0.,24.0
1981-08-31 00:13:22.790 ,2,0,0.,24.0,0.,24.0,0.,24.0,0.,24.0
1981-08-31 00:13:46.790 ,3,1,0.,24.0,0.,24.0,0.,24.0,0.,24.0
1981-08-31 00:14:10.790 ,3,0,2.,24.0,0.,24.0,0.,24.0,0.,24.0
1981-08-31 00:14:34.790 ,4,1,0.,24.0,0.,24.0,0.,24.0,0.,24.0
1981-08-31 00:14:58.790 ,4,0,0.,24.0,0.,24.0,0.,24.0,0.,24.0
1981-08-31 00:18:34.790 ,0,0,21.,24.0,0.,24.0,0.,24.0,0.,24.0
1981-08-31 00:18:58.790 ,0,0,0.,24.0,0.,24.0,1.,24.0,0.,24.0
1981-08-31 00:19:22.790 ,5,1,0.,24.0,0.,24.0,0.,24.0,0.,24.0
1981-08-31 00:19:46.790 ,5,0,0.,24.0,0.,24.0,0.,24.0,0.,24.0
1981-08-31 00:20:10.790 ,4,1,0.,24.0,1.,24.0,0.,24.0,0.,24.0
1981-08-31 00:20:34.790 ,4,0,0.,24.0,0.,24.0,1.,24.0,0.,24.0
1981-08-31 00:20:58.790 ,3,1,0.,24.0,0.,24.0,0.,24.0,0.,24.0
1981-08-31 00:21:22.790 ,2,1,0.,24.0,0.,24.0,0.,24.0,0.,24.0
1981-08-31 00:21:46.790 ,1,1,0.,24.0,0.,24.0,1.,24.0,0.,24.0
1981-08-31 00:22:10.790 ,0,1,0.,24.0,0.,24.0,0.,24.0,0.,24.0
1981-08-31 00:22:34.790 ,0,1,0.,24.0,0.,24.0,1.,24.0,0.,24.0
1981-08-31 00:22:58.790 ,1,1,0.,24.0,0.,24.0,0.,24.0,0.,24.0
1981-08-31 00:23:22.790 ,2,1,0.,24.0,0.,24.0,0.,24.0,0.,24.0
1981-08-31 00:23:46.790 ,3,1,0.,24.0,0.,24.0,0.,24.0,0.,24.0
1981-08-31 00:24:10.790 ,4,1,0.,24.0,0.,24.0,1.,24.0,0.,24.0
1981-08-31 00:24:34.790 ,5,1,0.,24.0,0.,24.0,0.,24.0,0.,24.0
1981-08-31 00:24:58.790 ,6,1,0.,24.0,0.,24.0,2.,24.0,0.,24.0
1981-08-31 00:25:22.790 ,7,1,6.,24.0,0.,24.0,0.,24.0,0.,24.0
1981-08-31 00:25:46.790 ,7,1,30.,24.0,0.,24.0,1.,24.0,0.,24.0
1981-08-31 00:26:10.790 ,6,1,23.,24.0,0.,24.0,1.,24.0,0.,24.0
1981-08-31 00:26:34.790 ,5,1,0.,24.0,0.,24.0,1.,24.0,0.,24.0
1981-08-31 00:26:58.790 ,4,1,0.,24.0,0.,24.0,0.,24.0,0.,24.0
1981-08-31 00:27:22.790 ,3,1,0.,24.0,0.,24.0,0.,24.0,0.,24.0
1981-08-31 00:27:46.790 ,3,0,0.,24.0,0.,24.0,0.,24.0,0.,24.0
1981-08-31 00:28:10.790 ,2,1,0.,24.0,0.,24.0,0.,24.0,0.,24.0
1981-08-31 00:28:34.790 ,2,0,0.,24.0,0.,24.0,0.,24.0,0.,24.0
1981-08-31 00:29:22.790 ,1,0,0.,24.0,0.,24.0,0.,24.0,0.,24.0
1981-08-31 00:29:46.790 ,0,1,0.,24.0,0.,24.0,0.,24.0,0.,24.0
1981-08-31 00:30:10.790 ,0,0,0.,24.0,0.,24.0,0.,24.0,0.,24.0
1981-08-31 00:30:34.790 ,0,1,0.,24.0,0.,24.0,0.,24.0,0.,24.0
1981-08-31 00:30:58.790 ,0,0,0.,24.0,0.,24.0,0.,24.0,0.,24.0
1981-08-31 00:31:22.790 ,1,1,0.,24.0,0.,24.0,0.,24.0,0.,24.0
1981-08-31 00:31:46.790 ,1,0,0.,24.0,0.,24.0,1.,24.0,0.,24.0
1981-08-31 00:32:10.790 ,2,1,0.,24.0,0.,24.0,0.,24.0,0.,24.0
1981-08-31 00:32:34.790 ,2,0,0.,24.0,0.,24.0,0.,24.0,0.,24.0
1981-08-31 00:32:58.790 ,3,1,0.,24.0,0.,24.0,1.,24.0,0.,24.0
1981-08-31 00:33:22.790 ,3,0,0.,24.0,0.,24.0,0.,24.0,0.,24.0
1981-08-31 00:33:46.790 ,4,1,0.,24.0,0.,24.0,0.,24.0,0.,24.0
1981-08-31 00:34:10.790 ,4,0,0.,24.0,0.,24.0,2.,24.0,0.,24.0
1981-08-31 00:34:34.790 ,5,1,0.,24.0,0.,24.0,0.,24.0,0.,24.0
1981-08-31 00:34:58.790 ,5,0,0.,24.0,0.,24.0,0.,24.0,0.,24.0
1981-08-31 00:35:22.790 ,6,1,0.,24.0,0.,24.0,0.,24.0,0.,24.0
1981-08-31 00:35:46.790 ,6,0,0.,24.0,0.,24.0,0.,24.0,0.,24.0
1981-08-31 00:36:10.790 ,7,1,9.,24.0,0.,24.0,0.,24.0,0.,24.0
1981-08-31 00:36:34.790 ,7,0,29.,24.0,0.,24.0,1.,24.0,0.,24.0
1981-08-31 00:36:58.790 ,7,1,41.,24.0,0.,24.0,0.,24.0,0.,24.0
1981-08-31 00:37:22.790 ,7,0,38.,24.0,0.,24.0,0.,24.0,0.,24.0
1981-08-31 00:37:46.790 ,6,1,31.,24.0,0.,24.0,0.,24.0,0.,24.0
1981-08-31 00:38:10.790 ,6,0,0.,24.0,0.,24.0,0.,24.0,0.,24.0
1981-08-31 00:38:34.790 ,5,1,1.,24.0,0.,24.0,0.,24.0,0.,24.0
1981-08-31 00:38:58.790 ,5,0,0.,24.0,0.,24.0,1.,24.0,0.,24.0
1981-08-31 00:39:22.790 ,4,1,0.,24.0,1.,24.0,0.,24.0,0.,24.0
1981-08-31 00:39:46.790 ,4,0,0.,24.0,0.,24.0,1.,24.0,0.,24.0
1981-08-31 00:40:10.790 ,3,1,0.,24.0,0.,24.0,0.,24.0,0.,24.0
1981-08-31 00:40:34.790 ,2,1,0.,24.0,0.,24.0,0.,24.0,0.,24.0
1981-08-31 00:40:58.790 ,1,1,0.,24.0,0.,24.0,0.,24.0,0.,24.0
1981-08-31 00:41:22.790 ,0,1,0.,24.0,0.,24.0,0.,24.0,0.,24.0
1981-08-31 00:41:46.790 ,0,1,0.,24.0,0.,24.0,1.,24.0,0.,24.0
1981-08-31 00:42:10.790 ,1,1,0.,24.0,0.,24.0,0.,24.0,0.,24.0
1981-08-31 00:42:34.790 ,2,1,0.,24.0,0.,24.0,0.,24.0,0.,24.0
1981-08-31 00:42:58.790 ,3,1,0.,24.0,1.,24.0,0.,24.0,0.,24.0
1981-08-31 00:43:22.790 ,4,1,0.,24.0,0.,24.0,0.,24.0,0.,24.0
1981-08-31 00:43:46.790 ,5,1,0.,24.0,0.,24.0,0.,24.0,0.,24.0
1981-08-31 00:44:10.790 ,6,1,0.,24.0,0.,24.0,0.,24.0,0.,24.0
1981-08-31 00:44:34.790 ,7,1,6.,24.0,0.,24.0,1.,24.0,0.,24.0
1981-08-31 00:44:58.790 ,7,1,33.,24.0,0.,24.0,0.,24.0,0.,24.0
1981-08-31 00:45:22.790 ,6,1,24.,24.0,0.,24.0,0.,24.0,0.,24.0
1981-08-31 00:45:46.790 ,5,1,0.,24.0,0.,24.0,0.,24.0,0.,24.0
1981-08-31 00:46:10.790 ,4,1,0.,24.0,0.,24.0,0.,24.0,0.,24.0
1981-08-31 00:46:34.790 ,3,1,0.,24.0,0.,24.0,2.,24.0,0.,24.0
1981-08-31 00:46:58.790 ,3,0,0.,24.0,0.,24.0,1.,24.0,0.,24.0
1981-08-31 00:47:22.790 ,2,1,1.,24.0,0.,24.0,0.,24.0,0.,24.0
1981-08-31 00:47:46.790 ,2,0,0.,24.0,0.,24.0,1.,24.0,0.,24.0
1981-08-31 00:48:10.790 ,1,1,0.,24.0,0.,24.0,0.,24.0,0.,24.0
1981-08-31 00:48:34.790 ,1,0,0.,24.0,0.,24.0,0.,24.0,0.,24.0
1981-08-31 00:48:58.790 ,0,1,0.,24.0,0.,24.0,0.,24.0,0.,24.0
1981-08-31 00:49:22.790 ,0,0,1.,24.0,0.,24.0,1.,24.0,0.,24.0
1981-08-31 00:52:10.790 ,0,0,0.,24.0,0.,24.0,0.,24.0,0.,24.0
1981-08-31 00:52:34.790 ,0,0,0.,24.0,0.,24.0,0.,24.0,0.,24.0
1981-08-31 00:52:58.790 ,4,1,0.,24.0,0.,24.0,2.,24.0,0.,24.0
1981-08-31 00:53:22.790 ,4,0,0.,24.0,0.,24.0,1.,24.0,0.,24.0
1981-08-31 00:53:46.790 ,5,1,0.,24.0,0.,24.0,2.,24.0,0.,24.0
1981-08-31 00:54:10.790 ,5,0,0.,24.0,0.,24.0,0.,24.0,0.,24.0
1981-08-31 00:54:34.790 ,6,1,0.,24.0,0.,24.0,0.,24.0,0.,24.0
1981-08-31 00:54:58.790 ,6,0,0.,24.0,0.,24.0,0.,24.0,0.,24.0
1981-08-31 00:55:22.790 ,7,1,7.,24.0,0.,24.0,1.,24.0,0.,24.0
1981-08-31 00:55:46.790 ,7,0,33.,24.0,0.,24.0,0.,24.0,0.,24.0
1981-08-31 00:56:10.790 ,7,1,31.,24.0,0.,24.0,0.,24.0,0.,24.0
1981-08-31 00:56:34.790 ,7,0,32.,24.0,0.,24.0,0.,24.0,0.,24.0
1981-08-31 00:56:58.790 ,6,1,33.,24.0,0.,24.0,0.,24.0,0.,24.0
1981-08-31 00:57:22.790 ,6,0,0.,24.0,0.,24.0,0.,24.0,0.,24.0
1981-08-31 00:57:46.790 ,5,1,0.,24.0,1.,24.0,0.,24.0,0.,24.0
1981-08-31 00:58:10.790 ,5,0,0.,24.0,0.,24.0,0.,24.0,0.,24.0
1981-08-31 00:58:34.790 ,4,1,0.,24.0,0.,24.0,1.,24.0,0.,24.0
1981-08-31 00:58:58.790 ,4,0,1.,24.0,0.,24.0,1.,24.0,0.,24.0
1981-08-31 00:59:22.790 ,3,1,0.,24.0,0.,24.0,0.,24.0,0.,24.0
1981-08-31 00:59:46.790 ,2,1,0.,24.0,0.,24.0,0.,24.0,0.,24.0
1981-08-31 01:00:10.790 ,1,1,0.,24.0,0.,24.0,1.,24.0,0.,24.0
1981-08-31 01:00:34.790 ,0,1,0.,24.0,0.,24.0,1.,24.0,0.,24.0
1981-08-31 01:00:58.790 ,0,1,0.,24.0,0.,24.0,1.,24.0,0.,24.0
1981-08-31 01:01:22.790 ,1,1,0.,24.0,1.,24.0,0.,24.0,0.,24.0
1981-08-31 01:01:46.790 ,2,1,0.,24.0,0.,24.0,0.,24.0,0.,24.0
1981-08-31 01:02:10.790 ,3,1,0.,24.0,0.,24.0,0.,24.0,0.,24.0
1981-08-31 01:02:34.790 ,4,1,0.,24.0,0.,24.0,0.,24.0,0.,24.0
1981-08-31 01:02:58.790 ,5,1,0.,24.0,0.,24.0,0.,24.0,0.,24.0
1981-08-31 01:03:22.790 ,6,1,0.,24.0,0.,24.0,0.,24.0,0.,24.0
1981-08-31 01:03:46.790 ,7,1,3.,24.0,0.,24.0,1.,24.0,0.,24.0
1981-08-31 01:04:10.790 ,7,1,35.,24.0,0.,24.0,0.,24.0,0.,24.0
1981-08-31 01:04:34.790 ,6,1,21.,24.0,0.,24.0,0.,24.0,0.,24.0
1981-08-31 01:04:58.790 ,5,1,0.,24.0,0.,24.0,1.,24.0,0.,24.0
1981-08-31 01:05:22.790 ,4,1,0.,24.0,0.,24.0,2.,24.0,0.,24.0
1981-08-31 01:05:46.790 ,3,1,0.,24.0,0.,24.0,0.,24.0,0.,24.0
1981-08-31 01:06:10.790 ,3,0,0.,24.0,0.,24.0,0.,24.0,0.,24.0
1981-08-31 01:06:34.790 ,2,1,0.,24.0,0.,24.0,0.,24.0,0.,24.0
1981-08-31 01:06:58.790 ,2,0,0.,24.0,0.,24.0,1.,24.0,0.,24.0
1981-08-31 01:07:22.790 ,1,1,0.,24.0,0.,24.0,0.,24.0,0.,24.0
1981-08-31 01:07:46.790 ,1,0,0.,24.0,0.,24.0,0.,24.0,0.,24.0
1981-08-31 01:08:10.790 ,0,1,0.,24.0,0.,24.0,0.,24.0,0.,24.0
1981-08-31 01:08:34.790 ,0,0,0.,24.0,0.,24.0,0.,24.0,0.,24.0
1981-08-31 01:09:46.790 ,0,0,0.,24.0,0.,24.0,1.,24.0,0.,24.0
1981-08-31 01:10:10.790 ,0,0,0.,24.0,0.,24.0,2.,24.0,0.,24.0
1981-08-31 01:10:34.790 ,2,1,0.,24.0,0.,24.0,0.,24.0,0.,24.0
1981-08-31 01:10:58.790 ,2,0,0.,24.0,0.,24.0,0.,24.0,0.,24.0
1981-08-31 01:11:22.790 ,3,1,0.,24.0,0.,24.0,0.,24.0,0.,24.0
1981-08-31 01:11:46.790 ,3,0,0.,24.0,0.,24.0,0.,24.0,0.,24.0
1981-08-31 01:12:10.790 ,4,1,0.,24.0,0.,24.0,0.,24.0,0.,24.0
1981-08-31 01:12:34.790 ,4,0,,0,,0,,0,,0
1981-08-31 01:12:58.790 ,5,1,0.,24.0,0.,24.0,0.,24.0,0.,24.0
1981-08-31 01:13:22.790 ,5,0,0.,24.0,0.,24.0,0.,24.0,0.,24.0
1981-08-31 01:13:46.790 ,6,1,0.,24.0,0.,24.0,0.,24.0,0.,24.0
1981-08-31 01:14:10.790 ,6,0,0.,24.0,0.,24.0,0.,24.0,0.,24.0
1981-08-31 01:14:34.790 ,7,1,2.,24.0,0.,24.0,1.,24.0,0.,24.0
1981-08-31 01:14:58.790 ,7,0,32.,24.0,0.,24.0,0.,24.0,0.,24.0
1981-08-31 01:15:22.790 ,7,1,31.,24.0,0.,24.0,0.,24.0,0.,24.0
1981-08-31 01:15:46.790 ,7,0,24.,24.0,0.,24.0,0.,24.0,0.,24.0
1981-08-31 01:16:10.790 ,6,1,19.,24.0,0.,24.0,0.,24.0,0.,24.0
1981-08-31 01:16:34.790 ,6,0,0.,24.0,0.,24.0,0.,24.0,0.,24.0
1981-08-31 01:16:58.790 ,5,1,0.,24.0,0.,24.0,0.,24.0,0.,24.0
1981-08-31 01:17:22.790 ,5,0,0.,24.0,0.,24.0,0.,24.0,0.,24.0
1981-08-31 01:17:46.790 ,4,1,0.,24.0,0.,24.0,1.,24.0,0.,24.0
1981-08-31 01:18:10.790 ,4,0,0.,24.0,0.,24.0,0.,24.0,0.,24.0
1981-08-31 01:18:34.790 ,3,1,0.,24.0,0.,24.0,0.,24.0,0.,24.0
1981-08-31 01:18:58.790 ,2,1,0.,24.0,0.,24.0,1.,24.0,0.,24.0
1981-08-31 01:19:22.790 ,1,1,0.,24.0,0.,24.0,0.,24.0,0.,24.0
1981-08-31 01:19:46.790 ,0,1,0.,24.0,0.,24.0,0.,24.0,0.,24.0
1981-08-31 01:20:10.790 ,0,1,0.,24.0,0.,24.0,0.,24.0,0.,24.0
1981-08-31 01:20:34.790 ,1,1,0.,24.0,0.,24.0,0.,24.0,0.,24.0
1981-08-31 01:20:58.790 ,2,1,0.,24.0,0.,24.0,0.,24.0,0.,24.0
1981-08-31 01:21:22.790 ,3,1,0.,24.0,0.,24.0,1.,24.0,0.,24.0
1981-08-31 01:21:46.790 ,4,1,0.,24.0,0.,24.0,1.,24.0,0.,24.0
1981-08-31 01:22:10.790 ,5,1,0.,24.0,0.,24.0,0.,24.0,0.,24.0
1981-08-31 01:22:34.790 ,6,1,0.,24.0,0.,24.0,0.,24.0,0.,24.0
1981-08-31 01:22:58.790 ,7,1,7.,24.0,0.,24.0,0.,24.0,0.,24.0
1981-08-31 01:23:22.790 ,7,1,28.,24.0,0.,24.0,1.,24.0,0.,24.0
1981-08-31 01:23:46.790 ,6,1,23.,24.0,0.,24.0,0.,24.0,0.,24.0
1981-08-31 01:24:10.790 ,5,1,0.,24.0,0.,24.0,0.,24.0,0.,24.0
1981-08-31 01:24:34.790 ,4,1,1.,24.0,0.,24.0,0.,24.0,0.,24.0
1981-08-31 01:24:58.790 ,3,1,0.,24.0,0.,24.0,0.,24.0,0.,24.0
1981-08-31 01:25:22.790 ,3,0,0.,24.0,0.,24.0,0.,24.0,0.,24.0
1981-08-31 01:25:46.790 ,2,1,0.,24.0,0.,24.0,0.,24.0,0.,24.0
1981-08-31 01:26:10.790 ,2,0,0.,24.0,0.,24.0,0.,24.0,0.,24.0
1981-08-31 01:26:34.790 ,1,1,0.,24.0,0.,24.0,0.,24.0,0.,24.0
1981-08-31 01:26:58.790 ,1,0,0.,24.0,0.,24.0,0.,24.0,0.,24.0
1981-08-31 01:27:22.790 ,0,1,0.,24.0,0.,24.0,0.,24.0,0.,24.0
1981-08-31 01:27:46.790 ,0,0,0.,24.0,0.,24.0,0.,24.0,0.,24.0
1981-08-31 01:28:10.790 ,0,1,0.,24.0,0.,24.0,0.,24.0,0.,24.0
1981-08-31 01:28:34.790 ,0,0,0.,24.0,0.,24.0,1.,24.0,0.,24.0
1981-08-31 01:28:58.790 ,1,1,0.,24.0,0.,24.0,0.,24.0,0.,24.0
1981-08-31 01:29:22.790 ,1,0,0.,24.0,0.,24.0,0.,24.0,0.,24.0
1981-08-31 01:29:46.790 ,2,1,0.,24.0,0.,24.0,0.,24.0,0.,24.0
1981-08-31 01:30:10.790 ,2,0,0.,24.0,0.,24.0,0.,24.0,0.,24.0
1981-08-31 01:30:34.790 ,3,1,0.,24.0,0.,24.0,0.,24.0,0.,24.0
1981-08-31 01:30:58.790 ,3,0,0.,24.0,0.,24.0,0.,24.0,0.,24.0
1981-08-31 01:31:22.790 ,4,1,0.,24.0,0.,24.0,0.,24.0,0.,24.0
1981-08-31 01:31:46.790 ,4,0,0.,24.0,0.,24.0,0.,24.0,0.,24.0
1981-08-31 01:32:10.790 ,5,1,0.,24.0,0.,24.0,1.,24.0,0.,24.0
1981-08-31 01:32:34.790 ,5,0,0.,24.0,0.,24.0,0.,24.0,0.,24.0
1981-08-31 01:32:58.790 ,6,1,0.,24.0,0.,24.0,0.,24.0,0.,24.0
1981-08-31 01:33:22.790 ,6,0,0.,24.0,0.,24.0,0.,24.0,0.,24.0
1981-08-31 01:33:46.790 ,7,1,7.,24.0,0.,24.0,1.,24.0,0.,24.0
1981-08-31 01:34:10.790 ,7,0,36.,24.0,0.,24.0,1.,24.0,0.,24.0
1981-08-31 01:34:34.790 ,7,1,31.,24.0,0.,24.0,0.,24.0,0.,24.0
1981-08-31 01:34:58.790 ,7,0,37.,24.0,0.,24.0,0.,24.0,0.,24.0
1981-08-31 01:35:22.790 ,6,1,29.,24.0,0.,24.0,0.,24.0,0.,24.0
1981-08-31 01:35:46.790 ,6,0,0.,24.0,0.,24.0,0.,24.0,0.,24.0
1981-08-31 01:36:10.790 ,5,1,0.,24.0,0.,24.0,0.,24.0,0.,24.0
1981-08-31 01:36:34.790 ,5,0,0.,24.0,0.,24.0,0.,24.0,0.,24.0
1981-08-31 01:36:58.790 ,4,1,0.,24.0,0.,24.0,0.,24.0,0.,24.0
1981-08-31 01:37:22.790 ,4,0,0.,24.0,0.,24.0,0.,24.0,0.,24.0
1981-08-31 01:37:46.790 ,3,1,0.,24.0,0.,24.0,0.,24.0,0.,24.0
1981-08-31 01:38:10.790 ,2,1,0.,24.0,0.,24.0,0.,24.0,0.,24.0
1981-08-31 01:38:34.790 ,1,1,0.,24.0,0.,24.0,0.,24.0,0.,24.0
1981-08-31 01:38:58.790 ,0,1,0.,24.0,0.,24.0,0.,24.0,0.,24.0
1981-08-31 01:39:22.790 ,0,1,0.,24.0,0.,24.0,2.,24.0,0.,24.0
1981-08-31 01:39:46.790 ,1,1,0.,24.0,0.,24.0,2.,24.0,0.,24.0
1981-08-31 01:40:10.790 ,2,1,0.,24.0,0.,24.0,2.,24.0,0.,24.0
1981-08-31 01:40:34.790 ,3,1,0.,24.0,0.,24.0,1.,24.0,0.,24.0
1981-08-31 01:40:58.790 ,4,1,0.,24.0,0.,24.0,0.,24.0,0.,24.0
1981-08-31 01:41:22.790 ,5,1,0.,24.0,0.,24.0,0.,24.0,0.,24.0
1981-08-31 01:41:46.790 ,6,1,0.,24.0,0.,24.0,1.,24.0,0.,24.0
1981-08-31 01:42:10.790 ,7,1,7.,24.0,0.,24.0,0.,24.0,0.,24.0
1981-08-31 01:42:34.790 ,7,1,31.,24.0,0.,24.0,0.,24.0,0.,24.0
1981-08-31 01:42:58.790 ,6,1,20.,24.0,0.,24.0,2.,24.0,0.,24.0
1981-08-31 01:43:22.790 ,5,1,1.,24.0,0.,24.0,0.,24.0,0.,24.0
1981-08-31 01:43:46.790 ,4,1,0.,24.0,0.,24.0,1.,24.0,0.,24.0
1981-08-31 01:44:10.790 ,3,1,0.,24.0,0.,24.0,0.,24.0,0.,24.0
1981-08-31 01:44:34.790 ,3,0,0.,24.0,0.,24.0,0.,24.0,0.,24.0
1981-08-31 01:44:58.790 ,2,1,0.,24.0,0.,24.0,0.,24.0,0.,24.0
1981-08-31 01:45:22.790 ,2,0,0.,24.0,0.,24.0,1.,24.0,0.,24.0
1981-08-31 01:45:46.790 ,1,1,0.,24.0,0.,24.0,0.,24.0,0.,24.0
1981-08-31 01:46:10.790 ,1,0,0.,24.0,0.,24.0,0.,24.0,0.,24.0
1981-08-31 01:46:34.790 ,0,1,0.,24.0,0.,24.0,0.,24.0,0.,24.0
1981-08-31 01:46:58.790 ,0,0,0.,24.0,0.,24.0,0.,24.0,0.,24.0
1981-08-31 01:47:22.790 ,0,1,0.,24.0,0.,24.0,0.,24.0,0.,24.0
1981-08-31 01:47:46.790 ,0,0,0.,24.0,0.,24.0,0.,24.0,0.,24.0
1981-08-31 01:48:10.790 ,1,1,0.,24.0,0.,24.0,0.,24.0,0.,24.0
1981-08-31 01:48:34.790 ,1,0,0.,24.0,0.,24.0,1.,24.0,0.,24.0
1981-08-31 01:48:58.790 ,2,1,0.,24.0,0.,24.0,1.,24.0,0.,24.0
1981-08-31 01:49:22.790 ,2,0,0.,24.0,0.,24.0,1.,24.0,0.,24.0
1981-08-31 01:49:46.790 ,3,1,1.,24.0,0.,24.0,0.,24.0,0.,24.0
1981-08-31 01:50:10.790 ,3,0,0.,24.0,0.,24.0,0.,24.0,0.,24.0
1981-08-31 01:50:34.790 ,4,1,0.,24.0,0.,24.0,0.,24.0,0.,24.0
1981-08-31 01:50:58.790 ,4,0,0.,24.0,0.,24.0,0.,24.0,0.,24.0
1981-08-31 01:51:22.790 ,5,1,0.,24.0,0.,24.0,0.,24.0,0.,24.0
1981-08-31 01:51:46.790 ,5,0,0.,24.0,0.,24.0,0.,24.0,0.,24.0
1981-08-31 01:52:10.790 ,6,1,0.,24.0,0.,24.0,0.,24.0,0.,24.0
1981-08-31 01:52:34.790 ,6,0,0.,24.0,0.,24.0,0.,24.0,0.,24.0
1981-08-31 01:52:58.790 ,7,1,4.,24.0,1.,24.0,0.,24.0,0.,24.0
1981-08-31 01:53:22.790 ,7,0,26.,24.0,0.,24.0,0.,24.0,0.,24.0
1981-08-31 01:53:46.790 ,7,1,25.,24.0,0.,24.0,0.,24.0,0.,24.0
1981-08-31 01:54:10.790 ,7,0,32.,24.0,0.,24.0,0.,24.0,0.,24.0
1981-08-31 01:54:34.790 ,6,1,24.,24.0,0.,24.0,0.,24.0,0.,24.0
1981-08-31 01:54:58.790 ,6,0,0.,24.0,0.,24.0,0.,24.0,0.,24.0
1981-08-31 01:55:22.790 ,5,1,0.,24.0,0.,24.0,0.,24.0,0.,24.0
1981-08-31 01:55:46.790 ,5,0,0.,24.0,0.,24.0,2.,24.0,0.,24.0
1981-08-31 01:56:10.790 ,4,1,0.,24.0,0.,24.0,0.,24.0,0.,24.0
1981-08-31 01:56:34.790 ,4,0,0.,24.0,0.,24.0,1.,24.0,0.,24.0
1981-08-31 01:56:58.790 ,3,1,0.,24.0,0.,24.0,1.,24.0,0.,24.0
1981-08-31 01:57:22.790 ,2,1,0.,24.0,0.,24.0,1.,24.0,0.,24.0
1981-08-31 01:57:46.790 ,1,1,0.,24.0,0.,24.0,1.,24.0,0.,24.0
1981-08-31 01:58:10.790 ,0,1,0.,24.0,0.,24.0,0.,24.0,0.,24.0
1981-08-31 01:58:34.790 ,0,1,0.,24.0,0.,24.0,1.,24.0,0.,24.0
1981-08-31 01:58:58.790 ,1,1,0.,24.0,0.,24.0,1.,24.0,0.,24.0
1981-08-31 01:59:22.790 ,2,1,0.,24.0,0.,24.0,1.,24.0,0.,24.0
1981-08-31 01:59:46.790 ,3,1,0.,24.0,0.,24.0,2.,24.0,0.,24.0
1981-08-31 02:00:10.790 ,4,1,0.,24.0,0.,24.0,0.,24.0,0.,24.0
1981-08-31 02:00:34.790 ,5,1,0.,24.0,0.,24.0,0.,24.0,0.,24.0
1981-08-31 02:00:58.790 ,6,1,0.,24.0,0.,24.0,1.,24.0,0.,24.0
1981-08-31 02:01:22.790 ,7,1,12.,24.0,0.,24.0,1.,24.0,0.,24.0
1981-08-31 02:01:46.790 ,7,1,30.,24.0,0.,24.0,1.,24.0,0.,24.0
1981-08-31 02:02:10.790 ,6,1,28.,24.0,0.,24.0,0.,24.0,0.,24.0
1981-08-31 02:02:34.790 ,5,1,0.,24.0,0.,24.0,1.,24.0,0.,24.0
1981-08-31 02:02:58.790 ,4,1,0.,24.0,0.,24.0,0.,24.0,0.,24.0
1981-08-31 02:03:22.790 ,3,1,0.,24.0,0.,24.0,0.,24.0,0.,24.0
1981-08-31 02:03:46.790 ,3,0,0.,24.0,0.,24.0,0.,24.0,0.,24.0
1981-08-31 02:04:10.790 ,2,1,0.,24.0,0.,24.0,0.,24.0,0.,24.0
1981-08-31 02:04:34.790 ,2,0,0.,24.0,0.,24.0,0.,24.0,0.,24.0
1981-08-31 02:04:58.790 ,1,1,0.,24.0,0.,24.0,0.,24.0,0.,24.0
1981-08-31 02:05:22.790 ,1,0,0.,24.0,0.,24.0,0.,24.0,0.,24.0
1981-08-31 02:05:46.790 ,0,1,0.,24.0,0.,24.0,0.,24.0,0.,24.0
1981-08-31 02:06:10.790 ,0,0,0.,24.0,0.,24.0,1.,24.0,0.,24.0
1981-08-31 02:06:34.790 ,0,1,0.,24.0,0.,24.0,0.,24.0,0.,24.0
1981-08-31 02:06:58.790 ,0,0,0.,24.0,0.,24.0,2.,24.0,0.,24.0
1981-08-31 02:07:22.790 ,1,1,0.,24.0,0.,24.0,1.,24.0,0.,24.0
1981-08-31 02:07:46.790 ,1,0,0.,24.0,0.,24.0,0.,24.0,0.,24.0
1981-08-31 02:08:10.790 ,2,1,0.,24.0,0.,24.0,0.,24.0,0.,24.0
1981-08-31 02:08:34.780 ,2,0,0.,24.0,0.,24.0,0.,24.0,0.,24.0
1981-08-31 02:08:58.780 ,3,1,0.,24.0,0.,24.0,1.,24.0,0.,24.0
1981-08-31 02:09:22.780 ,3,0,0.,24.0,0.,24.0,0.,24.0,0.,24.0
1981-08-31 02:09:46.780 ,4,1,0.,24.0,0.,24.0,1.,24.0,0.,24.0
1981-08-31 02:10:10.780 ,4,0,0.,24.0,0.,24.0,0.,24.0,0.,24.0
1981-08-31 02:10:34.780 ,5,1,0.,24.0,0.,24.0,0.,24.0,0.,24.0
1981-08-31 02:10:58.780 ,5,0,0.,24.0,0.,24.0,0.,24.0,0.,24.0
1981-08-31 02:11:22.780 ,6,1,1.,24.0,0.,24.0,0.,24.0,0.,24.0
1981-08-31 02:11:46.780 ,6,0,0.,24.0,0.,24.0,0.,24.0,0.,24.0
1981-08-31 02:12:10.780 ,7,1,9.,24.0,0.,24.0,0.,24.0,0.,24.0
1981-08-31 02:12:34.780 ,7,0,32.,24.0,0.,24.0,1.,24.0,0.,24.0
1981-08-31 02:12:58.780 ,7,1,43.,24.0,0.,24.0,1.,24.0,0.,24.0
1981-08-31 02:13:22.780 ,7,0,37.,24.0,0.,24.0,0.,24.0,0.,24.0
1981-08-31 02:13:46.780 ,6,1,19.,24.0,0.,24.0,1.,24.0,0.,24.0
1981-08-31 02:14:10.780 ,6,0,0.,24.0,0.,24.0,0.,24.0,0.,24.0
1981-08-31 02:14:34.780 ,5,1,0.,24.0,0.,24.0,0.,24.0,0.,24.0
1981-08-31 02:14:58.780 ,5,0,0.,24.0,0.,24.0,0.,24.0,0.,24.0
1981-08-31 02:15:22.780 ,4,1,0.,24.0,0.,24.0,0.,24.0,0.,24.0
1981-08-31 02:15:46.780 ,4,0,0.,24.0,0.,24.0,0.,24.0,0.,24.0
1981-08-31 02:16:10.780 ,3,1,0.,24.0,0.,24.0,0.,24.0,0.,24.0
1981-08-31 02:16:34.780 ,2,1,0.,24.0,0.,24.0,0.,24.0,0.,24.0
1981-08-31 02:16:58.780 ,1,1,0.,24.0,0.,24.0,1.,24.0,0.,24.0
1981-08-31 02:17:22.780 ,0,1,0.,24.0,0.,24.0,1.,24.0,0.,24.0
1981-08-31 02:17:46.780 ,0,1,0.,24.0,0.,24.0,0.,24.0,0.,24.0
1981-08-31 02:18:10.780 ,1,1,0.,24.0,0.,24.0,0.,24.0,0.,24.0
1981-08-31 02:18:34.780 ,2,1,0.,24.0,0.,24.0,0.,24.0,0.,24.0
1981-08-31 02:18:58.780 ,0,0,0.,24.0,0.,24.0,0.,24.0,0.,24.0
1981-08-31 02:20:04.780 ,0,0,,0,,0,,0,,0
1981-08-31 02:20:10.780 ,6,1,0.,24.0,0.,24.0,0.,24.0,0.,24.0
1981-08-31 02:20:34.780 ,7,1,7.,24.0,0.,24.0,0.,24.0,0.,24.0
1981-08-31 02:20:58.780 ,7,1,40.,24.0,0.,24.0,0.,24.0,0.,24.0
1981-08-31 02:21:22.780 ,6,1,24.,24.0,0.,24.0,0.,24.0,0.,24.0
1981-08-31 02:21:46.780 ,5,1,0.,24.0,0.,24.0,0.,24.0,0.,24.0
1981-08-31 02:22:10.780 ,4,1,1.,24.0,0.,24.0,1.,24.0,0.,24.0
1981-08-31 02:22:34.780 ,3,1,0.,24.0,0.,24.0,0.,24.0,0.,24.0
1981-08-31 02:22:58.780 ,3,0,0.,24.0,0.,24.0,1.,24.0,0.,24.0
1981-08-31 02:23:22.780 ,2,1,0.,24.0,0.,24.0,1.,24.0,0.,24.0
1981-08-31 02:23:46.780 ,2,0,0.,24.0,0.,24.0,1.,24.0,0.,24.0
1981-08-31 02:24:10.780 ,1,1,0.,24.0,0.,24.0,0.,24.0,0.,24.0
1981-08-31 02:24:34.780 ,1,0,0.,24.0,0.,24.0,0.,24.0,0.,24.0
1981-08-31 02:24:58.780 ,0,1,0.,24.0,0.,24.0,0.,24.0,0.,24.0
1981-08-31 02:25:22.780 ,0,0,1.,24.0,0.,24.0,0.,24.0,0.,24.0
1981-08-31 02:25:46.780 ,0,1,1.,24.0,0.,24.0,0.,24.0,0.,24.0
1981-08-31 02:26:10.780 ,0,0,0.,24.0,0.,24.0,0.,24.0,0.,24.0
1981-08-31 02:26:34.780 ,1,1,0.,24.0,0.,24.0,0.,24.0,0.,24.0
1981-08-31 02:26:58.780 ,1,0,0.,24.0,0.,24.0,0.,24.0,0.,24.0
1981-08-31 02:27:22.780 ,2,1,0.,24.0,0.,24.0,0.,24.0,0.,24.0
1981-08-31 02:27:46.780 ,2,0,0.,24.0,0.,24.0,0.,24.0,0.,24.0
1981-08-31 02:28:10.780 ,3,1,0.,24.0,0.,24.0,0.,24.0,0.,24.0
1981-08-31 02:28:34.780 ,3,0,0.,24.0,0.,24.0,0.,24.0,0.,24.0
1981-08-31 02:28:58.780 ,4,1,0.,24.0,0.,24.0,0.,24.0,0.,24.0
1981-08-31 02:29:22.780 ,4,0,0.,24.0,0.,24.0,1.,24.0,0.,24.0
1981-08-31 02:29:46.780 ,5,1,0.,24.0,0.,24.0,0.,24.0,0.,24.0
1981-08-31 02:30:10.780 ,5,0,0.,24.0,0.,24.0,0.,24.0,0.,24.0
1981-08-31 02:30:34.780 ,6,1,0.,24.0,0.,24.0,2.,24.0,0.,24.0
1981-08-31 02:30:58.780 ,6,0,0.,24.0,0.,24.0,0.,24.0,0.,24.0
1981-08-31 02:31:22.780 ,7,1,13.,24.0,0.,24.0,0.,24.0,0.,24.0
1981-08-31 02:31:46.780 ,7,0,24.,24.0,0.,24.0,1.,24.0,0.,24.0
1981-08-31 02:32:10.780 ,7,1,30.,24.0,0.,24.0,0.,24.0,0.,24.0
1981-08-31 02:32:34.780 ,7,0,24.,24.0,0.,24.0,0.,24.0,0.,24.0
1981-08-31 02:32:58.780 ,6,1,21.,24.0,0.,24.0,0.,24.0,0.,24.0
1981-08-31 02:33:22.780 ,6,0,0.,24.0,0.,24.0,0.,24.0,0.,24.0
1981-08-31 02:33:46.780 ,5,1,0.,24.0,0.,24.0,1.,24.0,0.,24.0
1981-08-31 02:34:10.780 ,5,0,0.,24.0,0.,24.0,0.,24.0,0.,24.0
1981-08-31 02:34:34.780 ,4,1,0.,24.0,0.,24.0,1.,24.0,0.,24.0
1981-08-31 02:34:58.780 ,4,0,0.,24.0,0.,24.0,0.,24.0,0.,24.0
1981-08-31 02:35:22.780 ,3,1,0.,24.0,0.,24.0,1.,24.0,0.,24.0
1981-08-31 02:35:46.780 ,2,1,0.,24.0,0.,24.0,1.,24.0,0.,24.0
1981-08-31 02:36:10.780 ,1,1,0.,24.0,0.,24.0,1.,24.0,0.,24.0
1981-08-31 02:36:34.780 ,0,1,0.,24.0,0.,24.0,0.,24.0,0.,24.0
1981-08-31 02:36:58.780 ,0,1,0.,24.0,0.,24.0,0.,24.0,0.,24.0
1981-08-31 02:37:22.780 ,1,1,0.,24.0,0.,24.0,0.,24.0,0.,24.0
1981-08-31 02:37:46.780 ,2,1,0.,24.0,0.,24.0,0.,24.0,0.,24.0
1981-08-31 02:38:10.780 ,3,1,0.,24.0,0.,24.0,0.,24.0,0.,24.0
1981-08-31 02:38:34.780 ,4,1,0.,24.0,0.,24.0,0.,24.0,0.,24.0
1981-08-31 02:38:58.780 ,5,1,0.,24.0,0.,24.0,1.,24.0,0.,24.0
1981-08-31 02:39:22.780 ,6,1,0.,24.0,0.,24.0,0.,24.0,0.,24.0
1981-08-31 02:39:46.780 ,7,1,7.,24.0,0.,24.0,1.,24.0,0.,24.0
1981-08-31 02:40:10.780 ,7,1,19.,24.0,0.,24.0,2.,24.0,0.,24.0
1981-08-31 02:40:34.780 ,6,1,25.,24.0,0.,24.0,0.,24.0,0.,24.0
1981-08-31 02:40:58.780 ,5,1,0.,24.0,0.,24.0,0.,24.0,0.,24.0
1981-08-31 02:41:22.780 ,4,1,0.,24.0,0.,24.0,0.,24.0,0.,24.0